{"data":{"norad_id":57732,"intl_designator":"2023-131A","name":"STARLINK-30375","alt_names":[],"object_type":"PAYLOAD","status":"ACTIVE","operator":null,"country":"US","launch_date":"2023-09-01","launch_site_code":"AFETR","launch_vehicle":null,"mission":null,"orbit_class":"UNKNOWN","rcs_meters":null,"size_class":null,"mass_kg":null,"dimensions":null,"purposes":["comms"],"wikipedia_slug":null,"has_3d_model":false,"image_url":null,"decayed_at":null,"tle_current":{"epoch":"2026-05-25T03:28:08.140224Z","epoch_age_seconds":76640,"freshness":"FRESH","line1":"1 57732U 23131A   26145.14453866  .00000060  00000+0  11695-4 0  9990","line2":"2 57732  43.0037  85.8251 0000915 265.9211  94.1536 15.27570370151791","mean_motion":15.2757037,"eccentricity":9.15e-5,"inclination_deg":43.0037,"raan_deg":85.8251,"arg_perigee_deg":265.9211,"mean_anomaly_deg":94.1536,"bstar":1.1695e-5,"rev_number":15179,"period_min":94.267342983355,"perigee_km":482.45013070925,"apogee_km":483.70573304178,"semimajor_km":6861.2149318755,"source":"CELESTRAK","updated_at":"2026-05-25T13:38:18.375378Z"}}}